TimeMDT,TemperatureF,Dew PointF,Humidity,Sea Level PressureIn,VisibilityMPH,Wind Direction,Wind SpeedMPH,Gust SpeedMPH,PrecipitationIn,Events,Conditions,WindDirDegrees,DateUTC
12:53 AM,73.0,50.0,44,29.80,10.0,North,3.5,-,N/A,,Clear,360,2013-08-31 06:53:00
1:53 AM,71.1,51.1,49,29.81,10.0,North,5.8,-,N/A,,Clear,10,2013-08-31 07:53:00
2:53 AM,69.1,50.0,51,29.81,10.0,ENE,4.6,-,N/A,,Clear,60,2013-08-31 08:53:00
3:53 AM,70.0,51.1,51,29.80,10.0,East,5.8,-,N/A,,Clear,90,2013-08-31 09:53:00
4:53 AM,66.9,53.1,61,29.81,10.0,Calm,Calm,-,N/A,,Clear,0,2013-08-31 10:53:00
5:53 AM,66.0,55.9,70,29.82,10.0,ENE,5.8,-,N/A,,Clear,60,2013-08-31 11:53:00
6:53 AM,71.1,62.1,73,29.85,9.0,ESE,5.8,-,N/A,,Clear,110,2013-08-31 12:53:00
7:53 AM,73.0,60.1,64,29.87,10.0,SE,8.1,-,N/A,,Clear,130,2013-08-31 13:53:00
8:53 AM,77.0,59.0,54,29.87,10.0,SE,9.2,-,N/A,,Clear,140,2013-08-31 14:53:00
9:53 AM,81.0,59.0,47,29.87,10.0,SSE,6.9,-,N/A,,Clear,160,2013-08-31 15:53:00
10:53 AM,84.9,60.1,43,29.85,10.0,SE,8.1,-,N/A,,Clear,140,2013-08-31 16:53:00
11:53 AM,89.1,59.0,36,29.82,10.0,Calm,Calm,-,N/A,,Clear,0,2013-08-31 17:53:00
12:53 PM,93.9,57.9,30,29.80,10.0,Calm,Calm,-,N/A,,Clear,0,2013-08-31 18:53:00
1:53 PM,93.0,60.1,33,29.79,10.0,NE,11.5,-,N/A,,Clear,40,2013-08-31 19:53:00
2:53 PM,96.1,60.1,30,29.76,10.0,NE,10.4,17.3,N/A,,Clear,50,2013-08-31 20:53:00
3:53 PM,97.0,60.1,29,29.73,10.0,East,11.5,-,N/A,,Clear,80,2013-08-31 21:53:00
4:53 PM,97.0,61.0,30,29.72,10.0,ENE,15.0,-,N/A,,Clear,60,2013-08-31 22:53:00
5:53 PM,95.0,57.0,28,29.71,10.0,SE,18.4,24.2,N/A,,Clear,130,2013-08-31 23:53:00
6:53 PM,90.0,55.0,30,29.73,10.0,South,10.4,-,N/A,,Clear,170,2013-09-01 00:53:00
7:22 PM,86.0,51.8,31,29.91,10.0,SW,19.6,26.5,N/A,Thunderstorm,Scattered Clouds,220,2013-09-01 01:22:00
7:34 PM,86.0,53.6,33,29.92,10.0,SSW,17.3,-,N/A,Thunderstorm,Scattered Clouds,210,2013-09-01 01:34:00
7:53 PM,84.9,54.0,34,29.76,10.0,SSW,16.1,25.3,N/A,Thunderstorm,Thunderstorm,210,2013-09-01 01:53:00
8:13 PM,78.8,60.8,54,29.92,9.0,SE,16.1,-,0.00,Rain-Thunderstorm,Light Thunderstorms and Rain,140,2013-09-01 02:13:00
8:46 PM,80.6,57.2,45,30.00,10.0,West,10.4,-,0.00,,Overcast,280,2013-09-01 02:46:00
8:53 PM,73.9,61.0,64,29.86,7.0,NNW,32.2,46.0,0.01,,Squalls,340,2013-09-01 02:53:00
9:07 PM,69.8,62.6,78,30.02,10.0,North,28.8,46.0,N/A,,Mostly Cloudy,10,2013-09-01 03:07:00
9:14 PM,69.8,62.6,78,30.03,10.0,North,21.9,41.4,N/A,Thunderstorm,Mostly Cloudy,10,2013-09-01 03:14:00
9:29 PM,69.8,64.4,83,30.04,10.0,NNE,18.4,29.9,N/A,,Mostly Cloudy,30,2013-09-01 03:29:00
9:53 PM,68.0,63.0,84,29.89,10.0,NE,20.7,33.4,0.00,Rain,Light Rain,50,2013-09-01 03:53:00
10:53 PM,69.1,63.0,81,29.89,10.0,NE,11.5,25.3,0.01,Rain,Light Rain,40,2013-09-01 04:53:00
11:05 PM,69.8,64.4,83,30.09,10.0,Variable,3.5,-,0.01,Rain-Thunderstorm,Light Rain,0,2013-09-01 05:05:00
11:20 PM,69.8,64.4,83,30.10,8.0,Variable,4.6,-,0.01,Rain,Light Rain,0,2013-09-01 05:20:00
11:32 PM,69.8,64.4,83,30.08,8.0,North,6.9,17.3,0.02,Rain-Thunderstorm,Light Thunderstorms and Rain,10,2013-09-01 05:32:00
11:53 PM,68.0,64.0,87,29.91,10.0,ENE,12.7,-,0.04,Rain,Light Rain,70,2013-09-01 05:53:00